Weather History for McGrath, AK

Change the Weather History Date:

Thursday, May 30, 2013

  Actual Average Record
Temperature  
Mean Temperature 68 °F 52 °F  
Max Temperature - 63 °F 85 °F (2013)
Min Temperature 51 °F 41 °F 30 °F (1964)
Degree Days  
Heating Degree Days 0 13  
Month to date heating degree days 710 554  
Since 1 July heating degree days 14328 13508  
Cooling Degree Days 3    
Month to date cooling degree days 7  
Year to date cooling degree days 7  
Growing Degree Days 18 (Base 50)    
Moisture  
Dew Point 40 °F    
Average Humidity 0    
Maximum Humidity 0    
Minimum Humidity 0    
Precipitation  
Precipitation T in 0.05 in 0.57 in (1988)
Month to date precipitation 0.07 1.05  
Year to date precipitation 3.86 4.63  
Snow  
Snow 0.00 in 0.00 in T in (1976)
Month to date snowfall 0.7 0.9  
Since 1 July snowfall 75.0 97.3  
Snow Depth 0.00 in    
Sea Level Pressure  
Sea Level Pressure 29.81 in    
Wind  
Wind Speed 4 mph (WNW)    
Max Wind Speed 21 mph    
Max Gust Speed 26 mph    
Visibility 10 miles    
Events      
T = Trace of Precipitation, MM = Missing Value Source: NWS Daily Summary

Daily Weather History Graph

Daily Weather History Graph

Search for Another Location

Airport:

Trip Planner

Search our weather history database for the weather conditions in past years. The results will help you decide how hot, cold, wet, or windy it might be!

Date:

Astronomy

May. 30, 2013 Rise Set
Actual Time 4:39 AM AKDT 12:02 AM AKDT
Civil Twilight 2:52 AM AKDT 1:47 AM AKDT
Nautical Twilight Sun does not rise Sun does not rise
Astronomical Twilight Sun does not rise Sun does not rise
Moon 2:36 AM AKDT (5/30) 12:41 PM AKDT (5/30)
Length of Visible Light 22h 55m
Length of Day
19h 22m
Waning Gibbous, 61% of the Moon is Illuminated
May 30
Waning Gibbous
May 31
Last Quarter
Jun 8
New
Jun 16
First Quarter
Jun 23
Full

Hourly Weather History & Observations

Time (AKDT) Temp. Dew Point Humidity Pressure Visibility Wind Dir Wind Speed Gust Speed Precip Events Conditions
12:53 AM 66.9 °F 37.0 °F 33% 29.74 in 10.0 mi North 6.9 mph - N/A   Scattered Clouds
1:53 AM 64.0 °F 37.0 °F 37% 29.75 in 10.0 mi NNW 3.5 mph - N/A   Mostly Cloudy
2:53 AM 60.1 °F 37.9 °F 44% 29.76 in 10.0 mi NW 5.8 mph - N/A   Mostly Cloudy
3:53 AM 53.1 °F 42.1 °F 66% 29.77 in 10.0 mi West 4.6 mph - N/A   Scattered Clouds
4:53 AM 51.1 °F 37.9 °F 61% 29.77 in 10.0 mi West 5.8 mph - N/A   Scattered Clouds
5:53 AM 53.1 °F 37.9 °F 57% 29.78 in 10.0 mi West 5.8 mph - N/A   Scattered Clouds
6:53 AM 55.0 °F 39.0 °F 55% 29.78 in 10.0 mi West 3.5 mph - N/A   Mostly Cloudy
7:53 AM 61.0 °F 39.9 °F 46% 29.79 in 10.0 mi West 3.5 mph - N/A   Scattered Clouds
8:53 AM 64.0 °F 41.0 °F 43% 29.79 in 10.0 mi Calm Calm - N/A   Mostly Cloudy
9:53 AM 66.0 °F 41.0 °F 40% 29.80 in 10.0 mi Variable 3.5 mph - N/A   Mostly Cloudy
10:53 AM 73.0 °F 39.0 °F 29% 29.81 in 10.0 mi North 8.1 mph - N/A   Mostly Cloudy
11:53 AM 75.9 °F 39.9 °F 27% 29.81 in 10.0 mi NNE 4.6 mph - N/A   Mostly Cloudy
12:53 PM 77.0 °F 37.9 °F 24% 29.81 in 10.0 mi Calm Calm - N/A   Mostly Cloudy
1:53 PM 79.0 °F 39.0 °F 24% 29.81 in 10.0 mi Calm Calm - N/A   Mostly Cloudy
2:53 PM 81.0 °F 37.9 °F 21% 29.81 in 10.0 mi Calm Calm - N/A   Mostly Cloudy
3:53 PM 84.0 °F 36.0 °F 18% 29.80 in 10.0 mi NW 3.5 mph - N/A   Mostly Cloudy
4:53 PM 79.0 °F 37.9 °F 23% 29.81 in 10.0 mi North 10.4 mph 18.4 mph N/A   Mostly Cloudy
5:53 PM 73.9 °F 42.1 °F 32% 29.85 in 10.0 mi East 4.6 mph - N/A   Overcast
6:53 PM 75.0 °F 43.0 °F 32% 29.84 in 10.0 mi ENE 6.9 mph - 0.00 in   Mostly Cloudy
7:53 PM 73.0 °F 45.0 °F 37% 29.84 in 10.0 mi SW 6.9 mph - N/A   Mostly Cloudy
8:53 PM 73.9 °F 43.0 °F 33% 29.84 in 10.0 mi SW 6.9 mph - N/A   Partly Cloudy
9:53 PM 70.0 °F 45.0 °F 41% 29.86 in 10.0 mi Calm Calm - N/A   Mostly Cloudy
10:53 PM 70.0 °F 44.1 °F 39% 29.89 in 10.0 mi West 5.8 mph - 0.00 in   Overcast
11:53 PM 66.0 °F 45.0 °F 47% 29.90 in 10.0 mi SW 3.5 mph - N/A   Overcast